Back to catalog

STARLINK-38227

AliveCommunicationsSSO
NORAD 100193·PAYLOAD·🇺🇸 United States

Launched Aug 1, 2026 from Vandenberg Space Force Base

Loading…

Next Passes (next 24 hours)

TLE

FreshSource: Space-Track

Epoch: Sep 14, 2026, 12:59 UTC

1 A0193U 26175Q   26257.54114819  .00117310  00000-0  77551-3 0  9990
2 A0193  97.2833  99.7678 0001850  34.0672 326.0712 15.75222142  8245

Track STARLINK-38227 in real time with AllMySat

Download on the App Store